Weather Roundup
Issued by NWS Springfield, MO

Home | Current Version | Previous Version | Text Only | Print | Product List | Glossary On
Versions: 1 2 3 4 5 6 7 8 9 10 11 12 13 14 15 16 17 18 19 20 21 22 23 24 25 26 27 28 29 30 31 32 33 34 35 36 37 38 39 40 41 42 43 44 45 46 47 48 49 50
000
NZUS99 KSGF 240007
HRRSGF

HOURLY WEATHER
NATIONAL WEATHER SERVICE SPRINGFIELD MO
700 PM CDT FRI JUN 23 2017

......SGF CWA......

CITY           SKY/WX    TMP DP  RH WIND       PRES   REMARKS
SPRINGFIELD    CLOUDY    80  61  52 N8        29.94R
6HR MIN TEMP:  68; 6HR MAX TEMP:  81; 6HR PCP:  0.74;

JOPLIN         SUNNY     83  60  45 N9        29.95R
6HR MIN TEMP:  74; 6HR MAX TEMP:  85;

WEST PLAINS    CLOUDY    72  63  73 N8        29.91S
6HR MIN TEMP:  71; 6HR MAX TEMP:  90; 6HR PCP:  0.31;

ROLLA          PTSUNNY   79  61  53 NW5       29.90R
6HR MIN TEMP:  72; 6HR MAX TEMP:  79;

OSAGE BEACH    CLOUDY    79  59  50 VRB3      29.93R
BRANSON        PTSUNNY   75  66  73 N12       29.95R

......SURROUNDING SGF CWA......

CITY           SKY/WX    TMP DP  RH WIND       PRES   REMARKS
CHANUTE        SUNNY     81  51  35 N14       29.98R
PARSONS        SUNNY     83  55  38 N10       29.97R
COFFEYVILLE    SUNNY     82  54  37 N12       29.95R
EMPORIA        SUNNY     78  48  34 N12G17    30.00S
GROVE OK       SUNNY     82  63  51 N5        29.95R
ROGERS AR      MOSUNNY   79  60  52 NE8       29.97R
SILOAM SPRINGS MOSUNNY   79  57  47 NE9       29.95R
HARRISON AR    CLOUDY    71  69  93 NW5       29.95R
NEAR YELLVILLE CLOUDY    72  64  78 SW3       29.90R

......KANSAS AND MISSOURI......

CITY           SKY/WX    TMP DP  RH WIND       PRES   REMARKS
KANSAS CTY INT MOSUNNY   75  54  47 NW15      29.99R
DOWNTOWN KC    SUNNY     79  52  38 NW12G22   29.97R
COLUMBIA       SUNNY     81  57  43 NW10      29.91R
SEDALIA        SUNNY     80  54  40 NW9       29.95R
ST JOSEPH      PTSUNNY   76  55  48 N16       29.99R
ST LOUIS       PTSUNNY   81  57  43 NW7       29.85R
SPIRIT OF STL  CLOUDY    80  62  54 W5        29.84R
KIRKSVILLE     MOSUNNY   75  54  47 NW9       29.93R
WICHITA        MOSUNNY   79  49  34 N10       30.01S
TOPEKA         SUNNY     78  56  46 N6        29.99R
OLATHE         SUNNY     77  51  40 NW12      29.98R

......TENNESSEE......

CITY           SKY/WX    TMP DP  RH WIND       PRES   REMARKS
MEMPHIS        LGT RAIN  74  72  93 N10       29.88R FOG
NASHVILLE      PTSUNNY   82  74  76 VRB5      29.80R

......ARKANSAS.......

CITY           SKY/WX    TMP DP  RH WIND       PRES   REMARKS
FAYETTEVILLE   CLOUDY    76  67  73 VRB6      29.94S
FT SMITH       CLOUDY    80  72  76 E8        29.89R
LITTLE ROCK    CLOUDY    71  70  96 W7        29.92R

......OKLAHOMA.......

CITY           SKY/WX    TMP DP  RH WIND       PRES   REMARKS
TULSA          MOSUNNY   86  56  35 NE15      29.90R
PONCA CITY     CLOUDY    79  55  43 N15       29.98R
MCALESTER      PTSUNNY   86  70  58 N18G24    29.89R HX  90
OKLAHOMA CITY  PTSUNNY   87  51  28 NE21G26   29.93R

......IOWA............

CITY           SKY/WX    TMP DP  RH WIND       PRES   REMARKS
DES MOINES     MOSUNNY   73  50  44 NW24      29.93R
QUAD CITIES    SUNNY     75  53  46 NW18G29   29.83R

......ILLINOIS........

CITY           SKY/WX    TMP DP  RH WIND       PRES   REMARKS
QUINCY         SUNNY     78  53  41 NW20G26   29.87R
CHICAGO        PTSUNNY   79  51  37 W13       29.71R



USA.gov is the U.S. government's official web portal to all federal, state and local government web resources and services.